CCA1447 ZBAA-ZPPP

Flight info

Callsign CCA1447
Flight time 3h 22m
Altitude 30100
Route BOTPU W47 IBARO/K0867S0980 W47 LOVRA W276 ARELA W30 INVOG/K0885S1010 W30 URGUS/K0891S0980 W30 MEBNA
Aircraft B738/M-SDE2E3FGHIRWXY/LB1

Departure

Time 2026-05-08 09:43
Airport Beijing Capital International Airport (ZBAA)

Arrival

Time 2026-05-08 13:05
Airport Kunming Changshui International Airport (ZPPP)
Time Latitude Longitude Altitude Speed Heading
2026-05-08 08:51 40.05939 116.60683 123 ft 0 kts 83°
2026-05-08 09:26 40.05938 116.60672 122 ft 2 kts 83°
2026-05-08 09:26 40.05936 116.60653 122 ft 2 kts 83°
2026-05-08 09:26 40.05934 116.60633 122 ft 2 kts 83°
2026-05-08 09:27 40.05933 116.60621 122 ft 2 kts 83°
2026-05-08 09:27 40.05929 116.60602 122 ft 2 kts 57°
2026-05-08 09:27 40.05919 116.60587 122 ft 2 kts 38°
2026-05-08 09:27 40.05906 116.60577 122 ft 2 kts 17°
2026-05-08 09:28 40.05892 116.60575 122 ft 0 kts 357°
2026-05-08 09:28 40.05886 116.60576 122 ft 1 kts 353°
2026-05-08 09:28 40.05884 116.60577 122 ft 0 kts 353°
2026-05-08 09:30 40.05888 116.60576 122 ft 2 kts 353°
2026-05-08 09:30 40.05922 116.60571 122 ft 6 kts 354°
2026-05-08 09:30 40.05974 116.60564 122 ft 7 kts 354°
2026-05-08 09:31 40.06028 116.60556 122 ft 8 kts 354°
2026-05-08 09:31 40.06103 116.60545 122 ft 12 kts 353°
2026-05-08 09:31 40.06182 116.60524 122 ft 9 kts 323°
2026-05-08 09:31 40.06192 116.60448 122 ft 8 kts 265°
2026-05-08 09:32 40.06185 116.60368 122 ft 9 kts 263°
2026-05-08 09:32 40.06197 116.60276 122 ft 12 kts 316°
2026-05-08 09:32 40.06289 116.60249 122 ft 15 kts 353°
2026-05-08 09:32 40.06406 116.60230 122 ft 18 kts 353°
2026-05-08 09:33 40.06537 116.60210 122 ft 19 kts 353°
2026-05-08 09:33 40.06678 116.60188 122 ft 20 kts 354°
2026-05-08 09:33 40.06823 116.60165 122 ft 21 kts 353°
2026-05-08 09:33 40.06965 116.60143 122 ft 21 kts 353°
2026-05-08 09:34 40.07120 116.60117 122 ft 23 kts 355°
2026-05-08 09:34 40.07258 116.60098 122 ft 20 kts 354°
2026-05-08 09:34 40.07396 116.60075 122 ft 19 kts 353°
2026-05-08 09:34 40.07536 116.60053 122 ft 20 kts 353°
2026-05-08 09:35 40.07678 116.60031 122 ft 20 kts 353°
2026-05-08 09:35 40.07815 116.60009 122 ft 19 kts 353°
2026-05-08 09:35 40.07955 116.59988 122 ft 19 kts 353°
2026-05-08 09:35 40.08102 116.59964 122 ft 21 kts 353°
2026-05-08 09:36 40.08259 116.59940 122 ft 23 kts 353°
2026-05-08 09:36 40.08402 116.59917 122 ft 20 kts 353°
2026-05-08 09:36 40.08540 116.59896 122 ft 20 kts 353°
2026-05-08 09:36 40.08591 116.59888 122 ft 4 kts 353°
2026-05-08 09:37 40.08636 116.59882 122 ft 8 kts 353°
2026-05-08 09:37 40.08703 116.59870 122 ft 11 kts 353°
2026-05-08 09:37 40.08788 116.59858 122 ft 12 kts 354°
2026-05-08 09:37 40.08873 116.59846 122 ft 11 kts 354°
2026-05-08 09:38 40.08903 116.59808 122 ft 7 kts 275°
2026-05-08 09:38 40.08898 116.59734 122 ft 9 kts 264°
2026-05-08 09:38 40.08892 116.59672 123 ft 0 kts 263°
2026-05-08 09:40 40.08892 116.59669 123 ft 1 kts 263°
2026-05-08 09:41 40.08889 116.59637 122 ft 5 kts 263°
2026-05-08 09:41 40.08882 116.59570 122 ft 9 kts 263°
2026-05-08 09:41 40.08843 116.59501 122 ft 11 kts 187°
2026-05-08 09:41 40.08815 116.59502 122 ft 0 kts 174°
2026-05-08 09:42 40.08684 116.59523 123 ft 50 kts 173°
2026-05-08 09:42 40.08107 116.59613 123 ft 113 kts 174°
2026-05-08 09:42 40.07132 116.59769 124 ft 165 kts 174°
2026-05-08 09:42 40.05930 116.59952 596 ft 172 kts 176°
2026-05-08 09:43 40.04739 116.60140 1198 ft 178 kts 174°
2026-05-08 09:43 40.03493 116.60400 1783 ft 183 kts 172°
2026-05-08 09:43 40.02240 116.60672 2328 ft 183 kts 173°
2026-05-08 09:43 40.00969 116.60900 2795 ft 187 kts 176°
2026-05-08 09:44 39.99659 116.61089 3307 ft 189 kts 176°
2026-05-08 09:44 39.98303 116.61259 3632 ft 202 kts 176°
2026-05-08 09:44 39.96891 116.61456 3979 ft 211 kts 175°
2026-05-08 09:44 39.95331 116.61684 4158 ft 233 kts 175°
2026-05-08 09:45 39.93718 116.61913 4616 ft 240 kts 175°
2026-05-08 09:45 39.92015 116.62151 4950 ft 252 kts 175°
2026-05-08 09:45 39.90219 116.62417 4902 ft 261 kts 174°
2026-05-08 09:45 39.88387 116.62706 4919 ft 264 kts 174°
2026-05-08 09:46 39.86540 116.62996 4918 ft 263 kts 175°
2026-05-08 09:46 39.84669 116.63279 5160 ft 276 kts 175°
2026-05-08 09:46 39.82777 116.63561 6054 ft 270 kts 175°
2026-05-08 09:46 39.80905 116.63844 6726 ft 272 kts 175°
2026-05-08 09:47 39.79027 116.64129 7358 ft 275 kts 175°
2026-05-08 09:47 39.77091 116.64425 7993 ft 278 kts 175°
2026-05-08 09:47 39.75149 116.64722 8652 ft 283 kts 174°
2026-05-08 09:47 39.73178 116.64942 9310 ft 287 kts 180°
2026-05-08 09:48 39.71187 116.64661 9940 ft 291 kts 197°
2026-05-08 09:48 39.69310 116.63594 10404 ft 300 kts 212°
2026-05-08 09:48 39.67635 116.61865 10615 ft 312 kts 226°
2026-05-08 09:48 39.66219 116.59648 10821 ft 324 kts 239°
2026-05-08 09:49 39.65303 116.56969 11056 ft 334 kts 258°
2026-05-08 09:49 39.64978 116.53929 11351 ft 344 kts 266°
2026-05-08 09:49 39.64804 116.50738 11623 ft 359 kts 268°
2026-05-08 09:49 39.64625 116.47462 11983 ft 370 kts 268°
2026-05-08 09:50 39.64434 116.44102 12644 ft 373 kts 269°
2026-05-08 09:50 39.64236 116.40794 13440 ft 372 kts 270°
2026-05-08 09:50 39.64025 116.37408 14104 ft 376 kts 270°
2026-05-08 09:50 39.63805 116.33979 14781 ft 380 kts 269°
2026-05-08 09:51 39.63577 116.30562 15483 ft 383 kts 269°
2026-05-08 09:51 39.63345 116.27106 16103 ft 388 kts 269°
2026-05-08 09:51 39.63108 116.23602 16769 ft 391 kts 270°
2026-05-08 09:51 39.62873 116.20086 17396 ft 395 kts 270°
2026-05-08 09:52 39.62633 116.16511 18036 ft 398 kts 270°
2026-05-08 09:52 39.62395 116.12951 18604 ft 402 kts 270°
2026-05-08 09:52 39.62151 116.09307 19203 ft 406 kts 270°
2026-05-08 09:52 39.61906 116.05675 19716 ft 411 kts 270°
2026-05-08 09:53 39.61654 116.01977 20416 ft 411 kts 270°
2026-05-08 09:53 39.61402 115.98269 20878 ft 417 kts 270°
2026-05-08 09:53 39.61142 115.94465 21383 ft 421 kts 270°
2026-05-08 09:53 39.60907 115.90708 21910 ft 424 kts 271°
2026-05-08 09:54 39.60850 115.86886 22411 ft 424 kts 276°
2026-05-08 09:54 39.61211 115.83116 22904 ft 423 kts 285°
2026-05-08 09:54 39.62035 115.79449 23442 ft 422 kts 294°
2026-05-08 09:54 39.63173 115.75986 23936 ft 423 kts 297°
2026-05-08 09:55 39.64513 115.72594 24422 ft 424 kts 302°
2026-05-08 09:55 39.66217 115.69436 24951 ft 425 kts 311°
2026-05-08 09:55 39.68237 115.66674 25437 ft 426 kts 317°
2026-05-08 09:55 39.70515 115.64194 25840 ft 430 kts 322°
2026-05-08 09:56 39.72938 115.61944 26489 ft 427 kts 326°
2026-05-08 09:56 39.75479 115.60046 27168 ft 424 kts 332°
2026-05-08 09:56 39.78149 115.58414 27895 ft 420 kts 334°
2026-05-08 09:56 39.80476 115.57148 28454 ft 418 kts 336°
2026-05-08 09:57 39.85822 115.54267 29579 ft 411 kts 331°
2026-05-08 09:57 39.88251 115.52315 30056 ft 408 kts 323°
2026-05-08 09:57 39.90415 115.49924 30143 ft 412 kts 316°
2026-05-08 09:58 39.94136 115.44205 30150 ft 408 kts 308°
2026-05-08 09:58 39.97184 115.37816 30162 ft 412 kts 297°
2026-05-08 09:59 39.98982 115.30687 30166 ft 418 kts 286°
2026-05-08 09:59 39.99801 115.23139 30163 ft 422 kts 279°
2026-05-08 10:00 40.00219 115.15501 30153 ft 423 kts 278°
2026-05-08 10:00 40.00589 115.07859 30151 ft 422 kts 277°
2026-05-08 10:01 40.00954 115.00273 30145 ft 420 kts 277°
2026-05-08 10:01 40.01314 114.92703 30132 ft 419 kts 277°
2026-05-08 10:02 40.01678 114.85123 30125 ft 422 kts 278°
2026-05-08 10:02 40.02042 114.77439 30116 ft 421 kts 278°
2026-05-08 10:03 40.02397 114.69869 30111 ft 421 kts 277°
2026-05-08 10:03 40.02750 114.62211 30127 ft 424 kts 277°
2026-05-08 10:04 40.03099 114.54536 30141 ft 422 kts 277°
2026-05-08 10:04 40.03442 114.46864 30143 ft 423 kts 277°
2026-05-08 10:05 40.03782 114.39173 30133 ft 422 kts 277°
2026-05-08 10:05 40.04110 114.31560 30118 ft 422 kts 277°
2026-05-08 10:06 40.04443 114.23809 30110 ft 424 kts 276°
2026-05-08 10:06 40.04765 114.16134 30094 ft 425 kts 276°
2026-05-08 10:07 40.05177 114.08469 30085 ft 421 kts 278°
2026-05-08 10:07 40.05756 114.00901 30075 ft 424 kts 279°
2026-05-08 10:08 40.06355 113.93276 30075 ft 423 kts 279°
2026-05-08 10:08 40.06934 113.85634 30075 ft 423 kts 278°
2026-05-08 10:09 40.07496 113.77978 30091 ft 424 kts 278°
2026-05-08 10:09 40.08044 113.70313 30094 ft 422 kts 278°
2026-05-08 10:10 40.08586 113.62638 30126 ft 424 kts 278°
2026-05-08 10:10 40.09119 113.55003 30134 ft 424 kts 278°
2026-05-08 10:11 40.09652 113.47282 30146 ft 424 kts 278°
2026-05-08 10:11 40.10179 113.39590 30136 ft 424 kts 278°
2026-05-08 10:12 40.10701 113.31899 30127 ft 425 kts 278°
2026-05-08 10:12 40.11215 113.24238 30115 ft 423 kts 278°
2026-05-08 10:13 40.11726 113.16531 30131 ft 425 kts 277°
2026-05-08 10:13 40.12231 113.08858 30152 ft 426 kts 278°
2026-05-08 10:14 40.12738 113.01081 30165 ft 426 kts 277°
2026-05-08 10:14 40.13232 112.93398 30184 ft 426 kts 278°
2026-05-08 10:15 40.13724 112.85674 30202 ft 424 kts 277°
2026-05-08 10:15 40.14212 112.77938 30205 ft 426 kts 277°
2026-05-08 10:16 40.14694 112.70209 30214 ft 426 kts 277°
2026-05-08 10:16 40.15169 112.62525 30204 ft 425 kts 277°
2026-05-08 10:17 40.15641 112.54790 30201 ft 426 kts 277°
2026-05-08 10:17 40.15799 112.47088 30186 ft 428 kts 269°
2026-05-08 10:18 40.14584 112.39394 30185 ft 436 kts 257°
2026-05-08 10:18 40.12578 112.31846 30188 ft 437 kts 253°
2026-05-08 10:19 40.10437 112.24433 30190 ft 438 kts 253°
2026-05-08 10:20 40.07226 112.13257 30201 ft 439 kts 253°
2026-05-08 10:20 40.05093 112.05730 30218 ft 439 kts 253°
2026-05-08 10:21 40.02977 111.98243 30224 ft 439 kts 253°
2026-05-08 10:21 40.00858 111.90767 30216 ft 439 kts 253°
2026-05-08 10:22 39.98058 111.83614 30205 ft 449 kts 237°
2026-05-08 10:22 39.93628 111.77762 30206 ft 456 kts 225°
2026-05-08 10:23 39.88728 111.72460 30203 ft 456 kts 224°
2026-05-08 10:23 39.83773 111.67258 30209 ft 456 kts 224°
2026-05-08 10:24 39.78846 111.62048 30207 ft 455 kts 224°
2026-05-08 10:24 39.73949 111.56821 30208 ft 455 kts 224°
2026-05-08 10:25 39.69031 111.51550 30208 ft 456 kts 224°
2026-05-08 10:25 39.64171 111.46339 30195 ft 455 kts 224°
2026-05-08 10:26 39.59265 111.41083 30188 ft 456 kts 224°
2026-05-08 10:26 39.54367 111.35841 30186 ft 455 kts 224°
2026-05-08 10:27 39.49433 111.30572 30178 ft 455 kts 224°
2026-05-08 10:27 39.44543 111.25361 30179 ft 456 kts 224°
2026-05-08 10:28 39.39637 111.20143 30174 ft 456 kts 224°
2026-05-08 10:28 39.34703 111.14906 30164 ft 455 kts 224°
2026-05-08 10:29 39.29843 111.09754 30155 ft 455 kts 224°
2026-05-08 10:29 39.24917 111.04545 30156 ft 454 kts 224°
2026-05-08 10:30 39.20475 110.98913 30143 ft 446 kts 238°
2026-05-08 10:30 39.17640 110.91956 30145 ft 437 kts 254°
2026-05-08 10:31 39.16331 110.84401 30159 ft 429 kts 269°
2026-05-08 10:31 39.16379 110.76726 30174 ft 427 kts 276°
2026-05-08 10:32 39.16803 110.69166 30182 ft 426 kts 277°
2026-05-08 10:32 39.17250 110.61587 30179 ft 426 kts 276°
2026-05-08 10:33 39.17656 110.53977 30198 ft 426 kts 276°
2026-05-08 10:33 39.18027 110.46377 30187 ft 426 kts 276°
2026-05-08 10:34 39.18377 110.38756 30181 ft 425 kts 276°
2026-05-08 10:34 39.18718 110.31125 30185 ft 425 kts 275°
2026-05-08 10:35 39.19048 110.23539 30183 ft 424 kts 275°
2026-05-08 10:35 39.19371 110.16007 30194 ft 424 kts 275°
2026-05-08 10:36 39.19722 110.08392 30200 ft 424 kts 276°
2026-05-08 10:36 39.20092 110.00832 30205 ft 424 kts 276°
2026-05-08 10:37 39.20457 109.93243 30199 ft 423 kts 276°
2026-05-08 10:37 39.20813 109.85726 30211 ft 423 kts 276°
2026-05-08 10:38 39.21164 109.78167 30204 ft 424 kts 276°
2026-05-08 10:38 39.21369 109.70590 30218 ft 425 kts 270°
2026-05-08 10:39 39.20195 109.63103 30225 ft 432 kts 253°
2026-05-08 10:39 39.17314 109.56233 30208 ft 441 kts 240°
2026-05-08 10:40 39.13035 109.50530 30221 ft 454 kts 222°
2026-05-08 10:40 39.07438 109.46637 30219 ft 465 kts 207°
2026-05-08 10:41 39.01156 109.44355 30221 ft 472 kts 198°
2026-05-08 10:41 38.94713 109.42799 30213 ft 474 kts 196°
2026-05-08 10:42 38.88161 109.41351 30211 ft 474 kts 196°
2026-05-08 10:42 38.81650 109.39851 30213 ft 475 kts 197°
2026-05-08 10:43 38.75140 109.38291 30210 ft 473 kts 197°
2026-05-08 10:43 38.68639 109.36701 30210 ft 472 kts 197°
2026-05-08 10:44 38.62212 109.35124 30211 ft 473 kts 197°
2026-05-08 10:44 38.55722 109.33529 30212 ft 473 kts 197°
2026-05-08 10:45 38.49241 109.31941 30211 ft 471 kts 197°
2026-05-08 10:45 38.42830 109.30371 30210 ft 471 kts 197°
2026-05-08 10:46 38.36318 109.29038 30210 ft 474 kts 192°
2026-05-08 10:46 38.29671 109.28473 30203 ft 478 kts 188°
2026-05-08 10:47 38.22975 109.28170 30199 ft 478 kts 188°
2026-05-08 10:47 38.16289 109.27866 30195 ft 477 kts 188°
2026-05-08 10:48 38.09616 109.27514 30195 ft 476 kts 189°
2026-05-08 10:48 38.02990 109.27131 30198 ft 477 kts 189°
2026-05-08 10:49 37.96328 109.26739 30198 ft 476 kts 189°
2026-05-08 10:49 37.89695 109.26347 30218 ft 478 kts 189°
2026-05-08 10:50 37.82972 109.25952 30216 ft 477 kts 189°
2026-05-08 10:50 37.76317 109.25558 30233 ft 477 kts 189°
2026-05-08 10:51 37.69624 109.25166 30237 ft 476 kts 189°
2026-05-08 10:51 37.62981 109.24773 30252 ft 479 kts 189°
2026-05-08 10:52 37.56276 109.24379 30252 ft 478 kts 190°
2026-05-08 10:52 37.49577 109.23988 30260 ft 479 kts 190°
2026-05-08 10:53 37.42901 109.23599 30273 ft 479 kts 190°
2026-05-08 10:53 37.36221 109.23209 30273 ft 478 kts 190°
2026-05-08 10:54 37.29534 109.22818 30260 ft 478 kts 190°
2026-05-08 10:54 37.22822 109.22426 30275 ft 480 kts 190°
2026-05-08 10:55 37.16127 109.22036 30281 ft 482 kts 190°
2026-05-08 10:55 37.09394 109.21647 30269 ft 481 kts 190°
2026-05-08 10:56 37.02661 109.21259 30279 ft 480 kts 190°
2026-05-08 10:56 36.95978 109.20873 30276 ft 480 kts 190°
2026-05-08 10:57 36.89248 109.20484 30272 ft 482 kts 189°
2026-05-08 10:57 36.79267 109.19908 30272 ft 480 kts 189°
2026-05-08 10:58 36.72572 109.19525 30269 ft 480 kts 189°
2026-05-08 10:58 36.65889 109.19142 30275 ft 480 kts 189°
2026-05-08 10:59 36.59186 109.18758 30276 ft 479 kts 189°
2026-05-08 10:59 36.52501 109.18378 30278 ft 479 kts 189°
2026-05-08 11:00 36.45770 109.17992 30276 ft 479 kts 189°
2026-05-08 11:00 36.39198 109.17619 30276 ft 479 kts 189°
2026-05-08 11:01 36.32454 109.17203 30273 ft 479 kts 189°
2026-05-08 11:01 36.25791 109.16751 30279 ft 478 kts 189°
2026-05-08 11:02 36.15755 109.16059 30272 ft 478 kts 189°
2026-05-08 11:03 36.09117 109.15611 30264 ft 477 kts 189°
2026-05-08 11:03 36.02457 109.15163 30262 ft 478 kts 189°
2026-05-08 11:04 35.95785 109.14719 30262 ft 476 kts 189°
2026-05-08 11:04 35.89148 109.14255 30259 ft 476 kts 191°
2026-05-08 11:05 35.82587 109.13015 30260 ft 466 kts 200°
2026-05-08 11:05 35.76519 109.10691 30261 ft 460 kts 206°
2026-05-08 11:06 35.70498 109.07961 30253 ft 458 kts 207°
2026-05-08 11:06 35.64502 109.05188 30268 ft 459 kts 206°
2026-05-08 11:07 35.58509 109.02457 30258 ft 459 kts 206°
2026-05-08 11:07 35.52468 108.99742 30267 ft 459 kts 206°
2026-05-08 11:08 35.46463 108.97071 30266 ft 459 kts 206°
2026-05-08 11:08 35.40437 108.94408 30263 ft 457 kts 206°
2026-05-08 11:09 35.34394 108.91743 30271 ft 459 kts 206°
2026-05-08 11:09 35.28361 108.89090 30280 ft 458 kts 206°
2026-05-08 11:10 35.22351 108.86449 30274 ft 458 kts 206°
2026-05-08 11:10 35.16328 108.83805 30273 ft 459 kts 206°
2026-05-08 11:11 35.10307 108.81168 30263 ft 459 kts 205°
2026-05-08 11:11 35.04254 108.78523 30250 ft 457 kts 206°
2026-05-08 11:12 34.98257 108.75907 30261 ft 457 kts 205°
2026-05-08 11:12 34.92243 108.73285 30255 ft 457 kts 206°
2026-05-08 11:13 34.86190 108.70650 30254 ft 458 kts 206°
2026-05-08 11:13 34.80147 108.68024 30255 ft 457 kts 205°
2026-05-08 11:14 34.74095 108.65394 30247 ft 459 kts 205°
2026-05-08 11:14 34.68061 108.62781 30237 ft 458 kts 205°
2026-05-08 11:15 34.62067 108.60189 30229 ft 458 kts 205°
2026-05-08 11:15 34.56053 108.57593 30227 ft 459 kts 205°
2026-05-08 11:16 34.50050 108.55004 30222 ft 460 kts 205°
2026-05-08 11:16 34.44013 108.52406 30223 ft 457 kts 205°
2026-05-08 11:17 34.37907 108.49783 30223 ft 459 kts 205°
2026-05-08 11:17 34.31931 108.47221 30226 ft 459 kts 205°
2026-05-08 11:18 34.25933 108.44650 30228 ft 458 kts 205°
2026-05-08 11:18 34.19886 108.42062 30249 ft 458 kts 205°
2026-05-08 11:19 34.13863 108.39488 30275 ft 458 kts 205°
2026-05-08 11:19 34.07842 108.36922 30300 ft 458 kts 205°
2026-05-08 11:20 34.01802 108.34348 30332 ft 460 kts 204°
2026-05-08 11:20 33.95693 108.31750 30346 ft 458 kts 204°
2026-05-08 11:21 33.89656 108.29188 30361 ft 460 kts 204°
2026-05-08 11:21 33.83553 108.26601 30378 ft 459 kts 204°
2026-05-08 11:22 33.77464 108.24022 30393 ft 461 kts 204°
2026-05-08 11:22 33.71442 108.21478 30386 ft 460 kts 204°
2026-05-08 11:23 33.65389 108.18922 30363 ft 461 kts 204°
2026-05-08 11:23 33.59347 108.16373 30340 ft 460 kts 204°
2026-05-08 11:24 33.53289 108.13821 30319 ft 460 kts 204°
2026-05-08 11:24 33.47248 108.11283 30300 ft 460 kts 204°
2026-05-08 11:25 33.41189 108.08742 30300 ft 461 kts 204°
2026-05-08 11:25 33.35081 108.06400 30296 ft 462 kts 201°
2026-05-08 11:26 33.28896 108.04230 30294 ft 464 kts 200°
2026-05-08 11:26 33.22694 108.02078 30289 ft 465 kts 201°
2026-05-08 11:27 33.16520 107.99913 30292 ft 464 kts 201°
2026-05-08 11:27 33.10308 107.97719 30292 ft 464 kts 201°
2026-05-08 11:28 33.04113 107.95524 30290 ft 464 kts 201°
2026-05-08 11:28 32.97936 107.93336 30295 ft 463 kts 201°
2026-05-08 11:29 32.91716 107.91127 30280 ft 463 kts 201°
2026-05-08 11:29 32.85537 107.88942 30289 ft 462 kts 201°
2026-05-08 11:30 32.79304 107.86742 30284 ft 463 kts 201°
2026-05-08 11:30 32.73114 107.84560 30289 ft 462 kts 201°
2026-05-08 11:31 32.66932 107.82381 30287 ft 463 kts 201°
2026-05-08 11:31 32.60754 107.80209 30291 ft 463 kts 201°
2026-05-08 11:32 32.54602 107.78048 30292 ft 463 kts 201°
2026-05-08 11:32 32.48405 107.75876 30293 ft 462 kts 201°
2026-05-08 11:33 32.42240 107.73716 30281 ft 463 kts 201°
2026-05-08 11:33 32.36057 107.71552 30281 ft 461 kts 201°
2026-05-08 11:34 32.29880 107.69394 30283 ft 462 kts 201°
2026-05-08 11:34 32.23694 107.67237 30281 ft 463 kts 201°
2026-05-08 11:35 32.17536 107.65095 30288 ft 461 kts 201°
2026-05-08 11:35 32.11343 107.62941 30294 ft 463 kts 201°
2026-05-08 11:36 32.05188 107.60805 30296 ft 460 kts 201°
2026-05-08 11:36 31.99044 107.58678 30295 ft 462 kts 201°
2026-05-08 11:37 31.92850 107.56532 30292 ft 461 kts 201°
2026-05-08 11:37 31.86658 107.54391 30291 ft 462 kts 201°
2026-05-08 11:38 31.80448 107.52250 30290 ft 460 kts 201°
2026-05-08 11:38 31.74253 107.50114 30286 ft 458 kts 202°
2026-05-08 11:39 31.68109 107.47997 30290 ft 460 kts 202°
2026-05-08 11:39 31.62002 107.45898 30283 ft 458 kts 202°
2026-05-08 11:40 31.55870 107.43794 30283 ft 457 kts 202°
2026-05-08 11:40 31.49739 107.41692 30286 ft 459 kts 202°
2026-05-08 11:41 31.43604 107.39585 30278 ft 457 kts 203°
2026-05-08 11:41 31.37725 107.36966 30283 ft 450 kts 211°
2026-05-08 11:42 31.32162 107.33778 30275 ft 447 kts 213°
2026-05-08 11:42 31.26578 107.30387 30273 ft 446 kts 213°
2026-05-08 11:43 31.21092 107.27049 30266 ft 444 kts 213°
2026-05-08 11:43 31.15552 107.23707 30269 ft 445 kts 213°
2026-05-08 11:44 31.10063 107.20425 30270 ft 445 kts 213°
2026-05-08 11:44 31.04519 107.17123 30269 ft 447 kts 213°
2026-05-08 11:45 30.98985 107.13844 30267 ft 444 kts 213°
2026-05-08 11:45 30.93466 107.10574 30268 ft 444 kts 213°
2026-05-08 11:46 30.87967 107.07319 30269 ft 441 kts 213°
2026-05-08 11:46 30.82406 107.04031 30272 ft 440 kts 214°
2026-05-08 11:47 30.76909 107.00788 30264 ft 439 kts 214°
2026-05-08 11:47 30.71422 106.97550 30264 ft 441 kts 214°
2026-05-08 11:48 30.66185 106.93919 30272 ft 433 kts 220°
2026-05-08 11:48 30.61264 106.89958 30264 ft 430 kts 222°
2026-05-08 11:49 30.56390 106.85960 30270 ft 428 kts 222°
2026-05-08 11:49 30.51480 106.81966 30268 ft 430 kts 222°
2026-05-08 11:50 30.46572 106.78022 30265 ft 428 kts 222°
2026-05-08 11:50 30.41652 106.74094 30267 ft 428 kts 221°
2026-05-08 11:51 30.36750 106.70197 30268 ft 428 kts 222°
2026-05-08 11:51 30.31853 106.66314 30277 ft 424 kts 222°
2026-05-08 11:52 30.26978 106.62463 30258 ft 426 kts 222°
2026-05-08 11:52 30.22095 106.58591 30265 ft 424 kts 222°
2026-05-08 11:53 30.16961 106.55187 30267 ft 434 kts 210°
2026-05-08 11:53 30.14024 106.54212 30265 ft 449 kts 199°
2026-05-08 11:53 30.10847 106.53818 30260 ft 460 kts 193°
2026-05-08 11:54 30.04427 106.53683 30277 ft 464 kts 189°
2026-05-08 11:54 29.97929 106.53759 30272 ft 464 kts 189°
2026-05-08 11:55 29.91492 106.53836 30275 ft 461 kts 189°
2026-05-08 11:55 29.84965 106.53879 30272 ft 462 kts 190°
2026-05-08 11:56 29.78514 106.53904 30273 ft 462 kts 190°
2026-05-08 11:56 29.72050 106.53929 30273 ft 461 kts 190°
2026-05-08 11:57 29.65629 106.53922 30268 ft 461 kts 190°
2026-05-08 11:57 29.59204 106.53921 30268 ft 463 kts 190°
2026-05-08 11:58 29.52727 106.53939 30268 ft 464 kts 190°
2026-05-08 11:58 29.46286 106.53947 30264 ft 460 kts 190°
2026-05-08 11:59 29.36641 106.53957 30260 ft 463 kts 191°
2026-05-08 11:59 29.30198 106.53963 30263 ft 463 kts 191°
2026-05-08 12:00 29.23734 106.53970 30256 ft 463 kts 191°
2026-05-08 12:00 29.17306 106.53977 30257 ft 462 kts 191°
2026-05-08 12:01 29.10855 106.53987 30261 ft 464 kts 191°
2026-05-08 12:01 29.04382 106.53992 30260 ft 463 kts 191°
2026-05-08 12:02 28.97954 106.54002 30263 ft 462 kts 191°
2026-05-08 12:02 28.91530 106.54010 30268 ft 462 kts 191°
2026-05-08 12:03 28.85021 106.54015 30283 ft 460 kts 191°
2026-05-08 12:03 28.78609 106.54028 30301 ft 459 kts 191°
2026-05-08 12:04 28.72184 106.54024 30302 ft 459 kts 191°
2026-05-08 12:04 28.65804 106.54037 30307 ft 459 kts 191°
2026-05-08 12:05 28.59402 106.54054 30312 ft 460 kts 191°
2026-05-08 12:05 28.52992 106.54063 30314 ft 458 kts 191°
2026-05-08 12:06 28.46628 106.54057 30322 ft 460 kts 191°
2026-05-08 12:06 28.40197 106.54057 30321 ft 460 kts 191°
2026-05-08 12:07 28.33775 106.54061 30314 ft 459 kts 191°
2026-05-08 12:07 28.27360 106.54060 30303 ft 459 kts 190°
2026-05-08 12:08 28.21007 106.53693 30297 ft 445 kts 200°
2026-05-08 12:08 28.18048 106.52798 30302 ft 432 kts 210°
2026-05-08 12:08 28.15346 106.51360 30303 ft 422 kts 219°
2026-05-08 12:09 28.10691 106.47514 30298 ft 409 kts 230°
2026-05-08 12:09 28.07170 106.42640 30301 ft 396 kts 245°
2026-05-08 12:10 28.04863 106.37048 30303 ft 393 kts 251°
2026-05-08 12:10 28.02915 106.31242 30298 ft 393 kts 252°
2026-05-08 12:11 28.01016 106.25410 30298 ft 393 kts 252°
2026-05-08 12:11 27.99115 106.19622 30300 ft 394 kts 252°
2026-05-08 12:12 27.97191 106.13834 30300 ft 394 kts 252°
2026-05-08 12:12 27.95264 106.08019 30310 ft 394 kts 252°
2026-05-08 12:13 27.93349 106.02187 30307 ft 395 kts 252°
2026-05-08 12:13 27.91441 105.96387 30308 ft 393 kts 252°
2026-05-08 12:14 27.89530 105.90589 30312 ft 394 kts 252°
2026-05-08 12:14 27.87618 105.84794 30312 ft 394 kts 252°
2026-05-08 12:15 27.85698 105.78987 30312 ft 394 kts 252°
2026-05-08 12:15 27.83773 105.73181 30318 ft 394 kts 252°
2026-05-08 12:16 27.81859 105.67419 30316 ft 395 kts 252°
2026-05-08 12:16 27.79918 105.61592 30319 ft 396 kts 252°
2026-05-08 12:17 27.77989 105.55814 30321 ft 395 kts 252°
2026-05-08 12:17 27.76043 105.49992 30321 ft 395 kts 252°
2026-05-08 12:18 27.74096 105.44177 30322 ft 395 kts 252°
2026-05-08 12:18 27.72159 105.38400 30328 ft 398 kts 252°
2026-05-08 12:19 27.70193 105.32539 30335 ft 398 kts 252°
2026-05-08 12:19 27.68233 105.26703 30335 ft 397 kts 252°
2026-05-08 12:20 27.66268 105.20875 30342 ft 398 kts 252°
2026-05-08 12:20 27.64263 105.15059 30346 ft 397 kts 250°
2026-05-08 12:21 27.61497 105.09652 30355 ft 407 kts 237°
2026-05-08 12:21 27.57561 105.04926 30361 ft 414 kts 231°
2026-05-08 12:22 27.53408 105.00481 30360 ft 413 kts 230°
2026-05-08 12:22 27.49205 104.96004 30366 ft 416 kts 230°
2026-05-08 12:23 27.45024 104.91512 30365 ft 414 kts 230°
2026-05-08 12:23 27.40862 104.87018 30370 ft 415 kts 230°
2026-05-08 12:24 27.36679 104.82484 30376 ft 416 kts 230°
2026-05-08 12:24 27.32533 104.77988 30379 ft 416 kts 230°
2026-05-08 12:25 27.28347 104.73457 30382 ft 416 kts 230°
2026-05-08 12:25 27.24163 104.68929 30382 ft 417 kts 230°
2026-05-08 12:26 27.19966 104.64415 30390 ft 419 kts 229°
2026-05-08 12:26 27.15767 104.59927 30395 ft 417 kts 229°
2026-05-08 12:27 27.11521 104.55397 30404 ft 418 kts 229°
2026-05-08 12:27 27.07309 104.50901 30411 ft 419 kts 229°
2026-05-08 12:28 27.03057 104.46362 30416 ft 420 kts 229°
2026-05-08 12:28 26.98839 104.41867 30421 ft 420 kts 229°
2026-05-08 12:29 26.94588 104.37342 30427 ft 419 kts 229°
2026-05-08 12:29 26.90333 104.32816 30365 ft 417 kts 229°
2026-05-08 12:30 26.88225 104.30582 30106 ft 406 kts 229°
2026-05-08 12:30 26.86181 104.28419 29845 ft 395 kts 229°
2026-05-08 12:30 26.84156 104.26356 29593 ft 386 kts 226°
2026-05-08 12:30 26.82113 104.24410 29342 ft 378 kts 225°
2026-05-08 12:31 26.80113 104.22568 29092 ft 369 kts 225°
2026-05-08 12:31 26.78142 104.20767 28844 ft 363 kts 225°
2026-05-08 12:31 26.76195 104.18980 28597 ft 363 kts 225°
2026-05-08 12:31 26.74214 104.17145 28352 ft 367 kts 225°
2026-05-08 12:32 26.72254 104.15322 28103 ft 370 kts 225°
2026-05-08 12:32 26.70271 104.13474 27846 ft 370 kts 225°
2026-05-08 12:32 26.68305 104.11639 27601 ft 370 kts 225°
2026-05-08 12:32 26.66325 104.09791 27348 ft 371 kts 225°
2026-05-08 12:33 26.64345 104.07942 27101 ft 373 kts 225°
2026-05-08 12:33 26.62342 104.06075 26848 ft 373 kts 225°
2026-05-08 12:33 26.60335 104.04205 26593 ft 375 kts 225°
2026-05-08 12:33 26.58346 104.02348 26344 ft 374 kts 225°
2026-05-08 12:34 26.56348 104.00480 26093 ft 376 kts 225°
2026-05-08 12:34 26.54326 103.98591 25841 ft 377 kts 225°
2026-05-08 12:34 26.52305 103.96705 25593 ft 378 kts 225°
2026-05-08 12:34 26.50299 103.94833 25349 ft 380 kts 225°
2026-05-08 12:35 26.48263 103.92939 25096 ft 379 kts 225°
2026-05-08 12:35 26.46220 103.91041 24850 ft 379 kts 224°
2026-05-08 12:35 26.44200 103.89166 24600 ft 381 kts 224°
2026-05-08 12:35 26.42151 103.87264 24349 ft 381 kts 224°
2026-05-08 12:36 26.40111 103.85371 24103 ft 382 kts 224°
2026-05-08 12:36 26.38067 103.83474 23856 ft 383 kts 224°
2026-05-08 12:36 26.36018 103.81575 23614 ft 384 kts 224°
2026-05-08 12:36 26.33937 103.79646 23377 ft 386 kts 224°
2026-05-08 12:37 26.31881 103.77743 23141 ft 386 kts 224°
2026-05-08 12:37 26.29812 103.75829 22910 ft 386 kts 224°
2026-05-08 12:37 26.27738 103.73911 22679 ft 389 kts 224°
2026-05-08 12:37 26.25641 103.71973 22450 ft 389 kts 224°
2026-05-08 12:38 26.23554 103.70046 22223 ft 389 kts 224°
2026-05-08 12:38 26.21457 103.68111 21994 ft 391 kts 224°
2026-05-08 12:38 26.19365 103.66180 21767 ft 392 kts 224°
2026-05-08 12:38 26.17251 103.64253 21541 ft 395 kts 222°
2026-05-08 12:39 26.15020 103.62394 21308 ft 397 kts 219°
2026-05-08 12:39 26.12758 103.60636 21080 ft 396 kts 219°
2026-05-08 12:39 26.10472 103.58909 20854 ft 398 kts 218°
2026-05-08 12:39 26.08197 103.57195 20624 ft 399 kts 218°
2026-05-08 12:40 26.05881 103.55445 20386 ft 400 kts 218°
2026-05-08 12:40 26.03566 103.53683 20162 ft 400 kts 219°
2026-05-08 12:40 26.01279 103.51935 19927 ft 401 kts 219°
2026-05-08 12:40 25.98978 103.50166 19695 ft 402 kts 219°
2026-05-08 12:41 25.96651 103.48375 19468 ft 403 kts 219°
2026-05-08 12:41 25.94352 103.46605 19236 ft 401 kts 219°
2026-05-08 12:41 25.92069 103.44847 19010 ft 402 kts 219°
2026-05-08 12:41 25.89766 103.43070 18754 ft 401 kts 219°
2026-05-08 12:42 25.87441 103.41277 18524 ft 401 kts 219°
2026-05-08 12:42 25.85142 103.39507 18323 ft 398 kts 219°
2026-05-08 12:42 25.82870 103.37763 18134 ft 395 kts 219°
2026-05-08 12:42 25.80603 103.36026 17914 ft 392 kts 219°
2026-05-08 12:43 25.78343 103.34294 17678 ft 392 kts 218°
2026-05-08 12:43 25.76062 103.32543 17438 ft 391 kts 218°
2026-05-08 12:43 25.73825 103.30824 17202 ft 390 kts 219°
2026-05-08 12:43 25.71597 103.29112 16972 ft 389 kts 219°
2026-05-08 12:44 25.69382 103.27408 16754 ft 388 kts 219°
2026-05-08 12:44 25.67205 103.25666 16704 ft 385 kts 221°
2026-05-08 12:44 25.65061 103.23817 16701 ft 388 kts 222°
2026-05-08 12:44 25.62960 103.21941 16611 ft 390 kts 223°
2026-05-08 12:45 25.60841 103.20035 16388 ft 387 kts 223°
2026-05-08 12:45 25.58746 103.18159 16400 ft 391 kts 222°
2026-05-08 12:45 25.56615 103.16260 16212 ft 399 kts 222°
2026-05-08 12:45 25.54436 103.14337 15953 ft 387 kts 221°
2026-05-08 12:46 25.52387 103.12547 15711 ft 363 kts 221°
2026-05-08 12:46 25.50407 103.10819 15541 ft 362 kts 221°
2026-05-08 12:46 25.48441 103.09098 15289 ft 362 kts 221°
2026-05-08 12:46 25.46468 103.07371 15052 ft 360 kts 221°
2026-05-08 12:47 25.44505 103.05654 14819 ft 361 kts 221°
2026-05-08 12:47 25.42542 103.03938 14586 ft 361 kts 221°
2026-05-08 12:47 25.40561 103.02206 14352 ft 361 kts 220°
2026-05-08 12:47 25.38592 103.00488 14121 ft 361 kts 220°
2026-05-08 12:48 25.36603 102.98754 13894 ft 360 kts 220°
2026-05-08 12:48 25.34631 102.97036 13847 ft 359 kts 220°
2026-05-08 12:48 25.32663 102.95321 13846 ft 361 kts 220°
2026-05-08 12:48 25.30688 102.93600 13851 ft 361 kts 220°
2026-05-08 12:49 25.28713 102.91882 13858 ft 361 kts 220°
2026-05-08 12:49 25.26739 102.90169 13866 ft 362 kts 220°
2026-05-08 12:49 25.24749 102.88444 13876 ft 362 kts 220°
2026-05-08 12:49 25.22757 102.86715 13705 ft 364 kts 220°
2026-05-08 12:50 25.20774 102.84994 13479 ft 361 kts 220°
2026-05-08 12:50 25.18804 102.83283 13254 ft 360 kts 219°
2026-05-08 12:50 25.16805 102.81547 13024 ft 360 kts 219°
2026-05-08 12:50 25.14834 102.79835 12793 ft 360 kts 219°
2026-05-08 12:51 25.12866 102.78123 12562 ft 360 kts 219°
2026-05-08 12:51 25.08933 102.74706 12093 ft 359 kts 219°
2026-05-08 12:51 25.06951 102.72984 11857 ft 359 kts 219°
2026-05-08 12:52 25.04974 102.71268 11622 ft 359 kts 219°
2026-05-08 12:52 25.01069 102.67882 11148 ft 358 kts 219°
2026-05-08 12:52 24.99088 102.66166 10913 ft 357 kts 219°
2026-05-08 12:53 24.97151 102.64487 10874 ft 356 kts 219°
2026-05-08 12:53 24.95198 102.62797 10878 ft 358 kts 219°
2026-05-08 12:53 24.93235 102.61100 10884 ft 354 kts 219°
2026-05-08 12:53 24.91322 102.59447 10892 ft 340 kts 219°
2026-05-08 12:54 24.89530 102.57899 10900 ft 327 kts 219°
2026-05-08 12:54 24.87745 102.56357 10907 ft 314 kts 219°
2026-05-08 12:54 24.86039 102.54883 10913 ft 302 kts 219°
2026-05-08 12:54 24.84404 102.53470 10918 ft 291 kts 219°
2026-05-08 12:55 24.82850 102.52138 10923 ft 280 kts 217°
2026-05-08 12:55 24.81218 102.51028 10925 ft 270 kts 203°
2026-05-08 12:55 24.79398 102.50687 10931 ft 261 kts 172°
2026-05-08 12:55 24.77729 102.51379 10942 ft 256 kts 144°
2026-05-08 12:56 24.76450 102.52743 10956 ft 257 kts 129°
2026-05-08 12:56 24.75337 102.54302 10950 ft 258 kts 127°
2026-05-08 12:56 24.74383 102.55983 10939 ft 257 kts 111°
2026-05-08 12:56 24.74061 102.57892 10904 ft 259 kts 85°
2026-05-08 12:57 24.74490 102.59797 10665 ft 259 kts 64°
2026-05-08 12:57 24.75444 102.61467 10422 ft 253 kts 49°
2026-05-08 12:57 24.76706 102.62774 10186 ft 251 kts 38°
2026-05-08 12:57 24.78116 102.63927 9947 ft 250 kts 36°
2026-05-08 12:58 24.79512 102.65064 9837 ft 246 kts 37°
2026-05-08 12:58 24.80864 102.66203 9836 ft 249 kts 38°
2026-05-08 12:58 24.82251 102.67398 9828 ft 249 kts 38°
2026-05-08 12:58 24.83616 102.68575 9822 ft 249 kts 38°
2026-05-08 12:59 24.84973 102.69752 9821 ft 249 kts 38°
2026-05-08 12:59 24.86345 102.70949 9817 ft 249 kts 38°
2026-05-08 12:59 24.87701 102.72125 9819 ft 245 kts 38°
2026-05-08 12:59 24.89003 102.73251 9797 ft 229 kts 38°
2026-05-08 13:00 24.90245 102.74324 9798 ft 224 kts 38°
2026-05-08 13:00 24.91485 102.75394 9797 ft 226 kts 38°
2026-05-08 13:00 24.92717 102.76461 9799 ft 226 kts 38°
2026-05-08 13:00 24.93955 102.77539 9804 ft 225 kts 38°
2026-05-08 13:01 24.95185 102.78610 9808 ft 225 kts 38°
2026-05-08 13:01 24.96376 102.79703 9808 ft 211 kts 40°
2026-05-08 13:01 24.97475 102.80714 9808 ft 198 kts 38°
2026-05-08 13:01 24.98564 102.81657 9804 ft 201 kts 37°
2026-05-08 13:02 24.99674 102.82602 9596 ft 204 kts 38°
2026-05-08 13:02 25.00786 102.83563 9267 ft 195 kts 38°
2026-05-08 13:02 25.01811 102.84452 9036 ft 179 kts 38°
2026-05-08 13:02 25.02769 102.85277 8812 ft 177 kts 38°
2026-05-08 13:03 25.03625 102.86015 8602 ft 176 kts 38°
2026-05-08 13:03 25.04595 102.86852 8372 ft 176 kts 39°
2026-05-08 13:03 25.05564 102.87689 8142 ft 176 kts 39°
2026-05-08 13:03 25.06531 102.88524 7906 ft 175 kts 39°
2026-05-08 13:04 25.07483 102.89346 7688 ft 173 kts 39°
2026-05-08 13:04 25.08433 102.90145 7475 ft 171 kts 37°
2026-05-08 13:04 25.09375 102.90949 7208 ft 169 kts 39°
2026-05-08 13:04 25.10295 102.91749 7038 ft 167 kts 39°
2026-05-08 13:05 25.11198 102.92547 6915 ft 155 kts 37°
2026-05-08 13:05 25.11950 102.93200 6914 ft 98 kts 40°
2026-05-08 13:05 25.12247 102.93502 6914 ft 25 kts 59°
2026-05-08 13:05 25.12308 102.93646 6914 ft 15 kts 87°
2026-05-08 13:06 25.12261 102.93718 6914 ft 9 kts 129°
2026-05-08 13:06 25.12237 102.93752 6914 ft 2 kts 130°
2026-05-08 13:06 25.12209 102.93772 6914 ft 7 kts 169°
2026-05-08 13:06 25.12152 102.93742 6914 ft 8 kts 217°
2026-05-08 13:07 25.12100 102.93697 6914 ft 10 kts 219°
2026-05-08 13:07 25.12048 102.93652 6914 ft 7 kts 218°
2026-05-08 13:07 25.12015 102.93623 6914 ft 5 kts 218°
2026-05-08 13:07 25.11983 102.93597 6914 ft 6 kts 218°
2026-05-08 13:08 25.11953 102.93570 6914 ft 5 kts 218°
2026-05-08 13:08 25.11921 102.93542 6914 ft 6 kts 219°
2026-05-08 13:08 25.11884 102.93509 6915 ft 7 kts 219°
2026-05-08 13:08 25.11843 102.93474 6914 ft 7 kts 218°
2026-05-08 13:09 25.11798 102.93434 6915 ft 8 kts 218°
2026-05-08 13:09 25.11748 102.93391 6915 ft 9 kts 218°
2026-05-08 13:09 25.11695 102.93345 6915 ft 10 kts 218°
2026-05-08 13:09 25.11637 102.93295 6915 ft 10 kts 218°
2026-05-08 13:10 25.11576 102.93241 6915 ft 11 kts 218°
2026-05-08 13:10 25.11510 102.93184 6915 ft 12 kts 218°
2026-05-08 13:10 25.11441 102.93124 6915 ft 12 kts 218°
2026-05-08 13:10 25.11372 102.93064 6915 ft 12 kts 218°
2026-05-08 13:11 25.11299 102.93000 6915 ft 13 kts 218°
2026-05-08 13:11 25.11223 102.92934 6915 ft 14 kts 218°
2026-05-08 13:11 25.11142 102.92863 6915 ft 15 kts 218°
2026-05-08 13:11 25.11058 102.92790 6915 ft 15 kts 218°
2026-05-08 13:12 25.10969 102.92714 6915 ft 16 kts 218°
2026-05-08 13:12 25.10887 102.92641 6915 ft 14 kts 219°
2026-05-08 13:12 25.10816 102.92580 6915 ft 11 kts 218°
2026-05-08 13:12 25.10760 102.92532 6915 ft 7 kts 211°
2026-05-08 13:13 25.10711 102.92533 6915 ft 7 kts 148°
2026-05-08 13:13 25.10676 102.92577 6915 ft 8 kts 128°
2026-05-08 13:13 25.10635 102.92625 6915 ft 8 kts 142°
2026-05-08 13:13 25.10581 102.92657 6915 ft 8 kts 154°
2026-05-08 13:14 25.10522 102.92689 6915 ft 9 kts 153°
2026-05-08 13:14 25.10459 102.92722 6915 ft 10 kts 156°
2026-05-08 13:14 25.10390 102.92744 6915 ft 10 kts 186°
2026-05-08 13:14 25.10347 102.92709 6915 ft 5 kts 251°
2026-05-08 13:15 25.10349 102.92670 6915 ft 5 kts 278°
2026-05-08 13:15 25.10335 102.92632 6915 ft 5 kts 226°
2026-05-08 13:15 25.10308 102.92606 6915 ft 4 kts 219°
2026-05-08 13:15 25.10282 102.92584 6915 ft 4 kts 218°
2026-05-08 13:16 25.10257 102.92562 6915 ft 3 kts 218°
2026-05-08 13:16 25.10241 102.92549 6915 ft 2 kts 218°
2026-05-08 13:16 25.10234 102.92543 6915 ft 0 kts 218°